Theta_e
341 340 333 328 336 341 342 343 343 341 341 342 340 338 338 339 339 338 338 338 338 337 335 336 337 335 335 336 335 335 335 334 333 330 329 329 330 330 329 328 328 328 327 326 325 324 324 325 325 325 324 323 323 323 323 324 323 322 322 321 320 318 317 317 317 317 317 317 317 318 318 318 318 318
342 342 334 327 332 340 342 344 344 341 340 341 340 339 338 339 338 338 338 337 338 336 332 334 336 335 335 335 335 335 334 334 333 331 329 328 328 328 328 328 328 329 329 328 327 325 324 325 325 325 324 324 324 324 324 324 323 322 321 320 319 318 318 317 317 317 317 317 318 318 318 319 319 319
343 344 339 330 329 338 342 343 344 343 341 341 340 339 338 337 335 336 337 337 338 337 334 335 336 336 336 335 335 335 334 335 333 330 329 328 327 327 327 327 327 329 330 330 328 326 324 324 325 326 325 325 325 325 325 325 323 322 320 319 319 318 318 318 318 318 318 318 318 319 319 319 319 319
345 344 343 336 330 335 342 343 343 344 343 342 341 339 337 334 332 333 336 337 338 338 337 337 337 337 337 335 335 335 336 335 330 327 326 326 326 326 326 327 327 328 328 328 328 327 325 325 326 327 327 326 326 326 325 324 323 321 319 319 318 318 318 318 318 319 319 319 319 319 319 319 318 318
345 344 345 342 336 334 339 342 342 342 342 343 341 340 338 335 330 329 330 334 337 339 340 338 337 337 336 336 336 336 335 333 328 326 325 325 326 326 327 327 328 328 328 328 328 327 327 327 328 329 328 327 327 327 325 323 322 320 319 319 318 318 318 318 318 318 318 318 318 318 318 318 317 317
344 344 344 344 341 337 335 338 341 340 339 340 340 337 336 334 330 327 327 329 332 337 340 338 337 337 337 337 336 335 334 331 328 326 326 326 326 327 327 327 328 328 328 328 328 329 330 330 330 330 329 329 328 327 326 323 322 321 319 318 317 317 317 316 316 317 317 317 317 317 317 317 317 317
342 344 343 343 343 341 336 334 336 337 336 334 334 333 332 331 329 327 326 327 329 331 335 337 337 337 337 336 335 333 332 331 329 327 326 327 327 327 327 327 328 328 328 328 329 330 330 331 331 331 331 330 329 328 326 324 323 321 317 315 315 315 316 316 315 315 315 315 315 315 315 316 315 315
341 342 342 341 342 343 341 336 333 334 333 330 328 328 328 327 327 327 326 327 327 327 329 332 335 337 338 336 335 333 331 331 330 328 327 327 327 328 328 327 328 328 328 328 329 329 331 332 332 332 332 331 329 327 326 325 323 320 316 314 314 315 315 314 313 312 311 311 311 311 311 310 311 311
340 341 341 340 342 344 344 340 335 332 331 329 327 326 326 325 326 326 326 326 327 327 327 327 329 333 337 337 335 333 332 332 331 329 327 327 327 328 328 329 329 329 329 329 329 330 332 333 333 333 333 331 329 328 327 326 324 321 317 314 315 315 314 313 311 310 309 308 307 306 306 306 306 306
337 340 342 341 342 343 343 342 339 336 332 330 328 327 326 325 325 325 326 325 325 326 327 327 327 329 332 334 335 333 332 332 331 330 328 327 327 328 329 330 330 330 330 331 330 331 332 334 334 335 333 331 329 329 329 327 326 323 318 316 316 316 315 314 313 311 309 306 304 304 304 304 304 304
335 337 340 342 342 343 343 342 342 341 338 333 330 328 327 326 325 325 326 326 326 325 325 326 327 328 329 332 334 334 333 333 332 331 330 328 328 329 330 330 331 332 333 332 331 331 333 334 335 335 334 331 330 330 330 328 327 324 319 318 318 318 317 317 315 313 309 305 303 303 303 303 303 303
335 335 337 339 340 341 342 342 342 342 341 338 334 331 329 327 326 325 325 326 327 326 326 325 326 328 330 332 335 336 337 336 333 330 329 327 327 329 331 330 331 332 333 333 332 331 332 333 334 335 334 331 330 330 329 328 327 323 319 319 319 319 319 319 317 313 308 303 302 302 302 302 302 302
337 336 336 336 337 337 338 339 340 341 342 342 339 337 334 330 328 326 326 327 327 327 327 327 326 328 330 331 334 336 335 333 330 327 328 328 327 328 331 331 331 331 332 333 332 332 332 332 332 333 332 330 329 328 327 325 323 319 318 319 320 319 319 319 317 311 305 302 303 303 302 302 302 302
339 337 337 336 335 335 336 336 337 339 341 343 342 341 339 336 332 328 327 327 327 327 327 327 327 328 329 329 330 331 329 328 328 328 327 327 327 328 331 332 331 331 332 333 332 332 332 333 333 332 332 330 328 326 323 320 317 316 317 319 320 319 319 318 314 308 303 302 303 303 302 302 302 302
340 339 338 338 337 337 337 337 336 337 339 342 343 343 343 342 339 334 330 328 327 326 326 326 326 327 327 326 327 327 327 328 328 327 327 327 327 328 330 330 330 330 332 333 333 332 333 334 334 333 332 331 328 324 321 317 314 315 317 319 320 319 318 315 310 305 303 303 303 303 303 302 302 302
341 341 340 340 339 339 339 338 338 337 338 341 343 344 345 344 343 340 336 332 329 327 327 325 326 326 325 326 326 326 327 327 327 327 328 328 328 328 328 329 328 329 331 333 334 333 333 334 334 333 332 330 327 323 318 315 314 316 319 319 319 318 316 312 307 304 303 303 303 303 303 302 302 302
342 342 342 341 341 341 340 340 341 340 340 340 342 345 347 347 346 344 341 338 334 331 329 328 326 326 325 326 326 325 325 325 326 327 328 329 329 329 328 327 326 328 332 334 335 333 333 334 334 333 332 329 325 321 318 317 317 318 319 318 318 317 314 310 306 304 303 303 303 303 302 302 302 302
345 344 343 343 342 341 342 342 342 343 343 343 344 346 348 347 348 347 346 343 340 336 334 332 330 330 329 328 328 327 326 326 326 326 327 328 329 329 329 328 327 330 334 336 335 334 333 332 333 332 330 327 323 320 319 320 319 319 318 318 317 315 312 308 306 304 303 303 303 303 303 303 303 304
348 347 346 345 344 343 342 342 343 343 344 344 345 347 348 347 347 347 346 345 344 342 339 337 335 334 332 331 331 328 327 326 326 326 327 328 330 331 331 330 331 333 336 337 336 335 333 332 333 332 329 325 323 320 319 319 319 318 317 316 314 312 310 308 306 305 304 303 303 303 304 305 305 305
351 350 350 348 347 346 344 344 344 344 345 346 347 349 349 348 348 347 344 344 346 345 344 342 340 338 335 333 332 330 328 327 326 328 332 334 336 336 334 334 335 334 336 337 336 334 333 332 332 330 328 325 324 322 320 319 319 317 315 313 311 311 310 308 306 305 304 303 304 304 305 306 307 307
354 353 352 351 351 349 348 347 347 347 348 349 350 350 350 350 350 347 344 346 348 347 346 345 343 341 339 336 335 332 330 328 328 332 336 338 339 339 338 337 336 334 334 335 334 333 333 332 331 329 327 326 325 323 321 319 318 315 313 312 312 312 312 309 306 305 304 304 304 305 306 307 309 309
357 356 355 354 353 353 351 350 350 350 350 351 351 351 351 352 350 347 347 350 350 348 348 347 345 343 342 339 337 335 333 331 330 332 335 336 339 340 339 338 337 335 334 334 334 334 333 331 329 329 328 327 326 324 322 320 317 314 313 313 313 313 312 308 305 305 305 304 305 306 307 309 311 312
360 359 358 357 356 355 354 353 353 353 353 352 352 352 352 352 351 348 349 350 350 349 348 347 346 345 343 342 340 337 335 333 333 333 333 335 338 339 338 337 337 337 336 333 333 334 332 330 329 328 328 328 326 324 322 319 316 314 314 314 313 313 311 306 305 306 305 305 306 307 309 311 313 313
363 361 360 359 358 357 356 356 356 356 355 355 354 354 354 353 352 350 350 351 350 350 349 347 347 346 344 343 342 340 337 335 334 334 335 337 337 337 337 336 336 336 336 334 332 332 331 329 329 329 328 328 326 324 322 319 315 314 314 313 312 311 309 306 305 306 305 306 307 308 311 313 314 312
364 363 363 362 360 359 358 357 357 357 357 357 357 356 355 354 353 353 352 352 351 351 350 349 348 347 345 344 343 342 340 337 335 335 336 337 338 337 336 336 335 335 336 335 332 330 329 329 329 329 328 327 326 325 322 319 317 315 313 311 310 310 309 307 305 306 307 307 307 309 312 313 312 311
363 363 364 363 361 360 359 359 359 358 358 359 358 358 358 357 356 355 355 354 353 351 351 350 349 348 347 346 345 343 342 340 337 336 336 337 339 339 337 335 335 336 337 336 333 330 329 329 329 329 328 328 326 325 323 321 319 316 313 311 310 309 309 307 306 306 307 307 308 310 312 312 311 312
362 362 362 361 361 360 360 360 360 359 359 359 359 359 359 359 358 357 357 356 354 353 352 351 350 349 347 346 346 344 343 342 340 338 337 338 340 340 339 337 337 337 337 336 333 330 329 329 329 329 329 328 326 324 323 322 320 316 312 310 308 308 308 308 306 306 307 308 309 311 312 312 314 315
362 362 362 361 360 360 360 360 360 360 359 359 359 358 359 359 359 359 359 358 356 355 354 353 352 350 349 348 347 346 345 343 342 340 338 339 341 342 341 340 339 337 337 336 333 331 329 329 329 329 328 327 325 324 323 322 319 315 311 309 307 308 309 309 306 305 306 306 307 309 311 313 315 316
363 362 362 361 361 361 360 360 360 359 359 359 358 358 358 358 359 359 359 359 357 356 355 354 353 352 351 350 349 348 346 344 343 341 339 339 341 342 342 341 340 339 338 337 334 332 331 330 329 328 327 326 324 323 321 319 316 312 309 307 306 307 307 307 305 304 304 306 308 310 313 315 316 317
363 363 362 362 362 361 361 361 361 361 360 360 359 359 359 359 359 359 359 359 359 358 356 355 354 354 353 352 350 349 347 345 343 342 340 339 340 341 342 342 341 339 338 337 335 333 332 330 329 327 326 325 324 321 319 316 313 311 308 305 304 304 305 304 304 303 304 307 311 313 314 316 316 316
364 363 363 362 362 362 362 361 361 361 361 361 361 360 359 359 359 359 359 358 358 358 357 356 355 354 354 352 351 349 347 345 344 343 341 339 339 340 340 341 341 340 338 337 335 334 332 330 328 326 325 325 323 319 317 315 312 309 306 304 303 303 304 304 304 303 304 309 312 314 314 315 316 316
363 362 362 362 361 361 361 361 361 361 361 361 361 360 360 360 359 359 359 358 357 357 357 356 355 354 353 352 350 348 346 344 344 343 342 340 339 339 340 340 340 340 338 337 335 333 331 330 328 326 326 325 321 318 315 313 310 306 304 303 303 303 303 304 303 303 305 310 313 314 315 315 315 316
361 361 361 361 361 361 361 361 361 360 360 360 359 359 359 359 359 358 358 357 357 357 356 355 354 353 352 351 349 347 345 344 344 343 342 340 339 339 339 339 339 339 339 337 334 331 329 328 327 326 326 324 320 316 313 311 308 305 304 303 303 303 303 303 302 303 307 311 314 314 314 315 314 312
360 360 359 359 359 358 358 358 359 359 359 359 358 358 358 357 357 358 358 358 358 358 357 355 354 353 352 350 348 347 345 344 344 343 342 340 339 338 338 339 338 338 338 337 334 331 329 327 326 325 325 322 318 314 311 310 309 306 304 303 303 303 303 303 303 305 308 312 314 313 313 313 311 309
355 353 352 350 349 347 345 345 345 345 346 346 345 345 345 345 346 348 350 351 353 355 355 355 355 355 352 348 347 346 345 344 343 343 342 340 339 338 338 338 339 338 337 336 334 332 330 328 326 325 323 320 317 313 312 311 311 309 306 303 302 303 303 304 306 307 309 312 314 313 312 311 309 308
342 340 338 336 335 334 333 333 333 332 333 333 333 335 337 338 339 341 342 343 345 349 352 353 354 354 353 350 347 344 343 343 343 342 342 341 340 338 337 337 338 337 336 334 333 331 330 327 327 325 321 318 316 313 311 312 312 311 307 304 302 303 306 308 310 309 310 313 314 312 311 309 307 309
332 331 330 329 329 329 329 329 329 329 330 330 330 331 334 335 336 338 339 341 344 346 348 349 350 352 352 351 348 344 342 342 342 343 343 341 340 339 337 336 336 335 334 332 331 330 328 327 326 324 320 317 315 313 311 312 313 312 308 305 305 308 310 311 311 310 311 313 313 311 309 307 307 309
329 329 328 328 328 328 328 328 328 328 328 328 329 329 330 331 332 333 335 337 340 342 344 345 347 349 350 351 350 346 342 340 341 343 343 342 341 339 337 336 335 334 332 330 328 327 328 328 326 323 319 317 315 313 312 314 314 312 309 308 310 312 313 313 312 312 313 313 311 309 308 308 308 310
328 328 328 328 328 328 328 327 327 328 328 329 329 330 331 331 332 333 334 334 335 337 340 342 344 346 347 349 350 348 344 341 341 342 342 341 340 338 337 337 335 332 330 328 326 326 327 326 324 321 318 317 316 313 313 314 313 311 310 312 313 314 313 313 313 312 311 310 309 309 309 310 310 310
328 328 328 327 327 327 327 327 327 327 328 327 327 329 331 333 334 334 334 334 334 334 336 338 341 344 345 346 347 347 345 342 342 342 342 341 340 338 337 337 334 330 328 326 325 326 326 324 322 321 319 316 316 316 315 315 313 311 311 314 315 314 314 313 312 310 308 308 309 311 311 311 311 312
328 328 327 327 327 327 327 327 327 327 326 327 327 329 331 333 334 334 334 334 334 334 334 335 337 340 344 345 346 345 344 341 341 341 341 340 338 336 336 335 333 329 327 326 325 326 325 323 322 320 318 317 318 318 318 317 314 311 311 312 313 314 313 312 310 308 308 310 311 312 311 311 312 313
329 329 328 327 327 327 327 328 327 327 327 328 329 331 332 334 334 335 335 335 335 334 334 334 334 335 338 341 343 344 344 342 340 340 339 338 337 336 333 332 330 328 326 325 325 325 324 323 322 319 318 319 320 320 319 317 314 313 311 311 312 313 311 310 311 312 311 312 312 312 312 312 313 313
329 330 329 329 328 329 330 329 328 327 329 330 331 332 333 333 333 334 335 335 335 335 335 335 335 334 334 335 337 341 343 342 341 340 338 337 336 335 332 330 328 327 326 326 325 324 323 323 321 319 320 321 320 320 319 317 315 313 311 310 310 310 309 310 313 314 312 312 312 312 312 313 313 313
330 330 331 330 330 331 331 330 328 329 330 331 331 331 331 332 332 333 334 334 335 336 336 336 336 336 335 334 335 338 339 340 340 339 338 337 335 332 331 329 327 325 326 326 325 323 322 322 321 321 321 321 320 319 318 316 314 312 310 309 309 307 306 310 313 313 312 312 312 312 313 313 314 313
331 332 332 332 332 332 331 330 329 330 330 330 330 330 330 330 331 332 333 334 334 335 336 336 336 336 336 336 336 335 336 338 339 337 335 334 333 330 328 327 325 325 326 325 323 322 322 322 321 321 321 321 320 318 317 314 313 311 311 310 309 308 309 312 313 312 312 312 312 312 314 314 314 312
Wind_Speed
15 14 17 18 16 16 14 13 13 13 15 14 12 14 18 17 16 16 16 16 13 11 14 16 15 16 16 15 14 14 13 14 13 12 12 11 12 12 12 12 11 11 11 10 10 10 9 9 9 9 9 10 11 13 15 16 17 17 16 16 16 17 17 18 18 18 18 18 18 18 18 17 17 16
17 15 16 20 19 18 17 16 15 15 17 17 14 13 17 19 19 17 16 15 12 10 13 15 15 15 16 16 15 15 15 14 14 13 12 13 12 12 13 13 12 12 12 12 12 12 11 11 10 10 11 11 13 14 16 17 18 18 17 17 18 18 19 20 20 20 20 20 20 19 19 18 17 17
18 17 15 19 21 20 20 19 19 18 19 19 18 15 15 18 19 19 18 17 13 11 13 15 14 15 16 17 16 15 14 14 14 13 13 14 14 13 13 13 12 12 12 12 12 13 12 12 12 12 12 13 14 15 17 18 18 18 18 18 19 19 20 21 22 22 22 22 22 21 20 20 19 19
20 19 17 18 21 22 22 22 22 22 21 21 21 20 17 16 18 19 20 20 17 13 14 16 16 15 15 16 15 15 15 15 13 11 12 13 14 14 12 11 11 12 12 12 13 13 13 13 13 13 14 14 15 16 17 18 17 17 18 19 20 20 21 21 21 22 22 22 23 23 22 22 21 21
22 22 21 19 19 22 25 25 24 24 24 24 24 23 22 20 18 19 22 23 20 17 16 17 17 15 14 15 15 16 16 14 10 9 11 12 13 13 11 11 11 11 12 13 13 14 14 14 14 14 15 15 16 17 18 17 16 16 18 19 20 20 20 19 19 20 21 21 22 22 22 21 21 20
25 24 24 23 20 21 25 27 27 26 26 27 26 25 25 23 21 21 22 24 23 20 19 19 18 17 17 17 17 17 15 13 10 10 11 12 12 12 12 11 12 12 12 13 13 14 14 14 14 15 15 16 17 18 17 16 15 16 17 19 19 19 18 16 16 17 18 18 18 18 19 19 19 19
27 27 27 26 24 23 24 27 29 29 28 28 28 27 25 24 23 22 23 24 24 22 22 22 21 20 21 20 19 18 15 14 13 12 12 12 13 13 13 13 12 13 13 13 14 15 14 14 14 15 16 16 17 17 16 15 16 17 18 18 17 16 14 13 13 14 15 15 15 16 17 17 18 19
29 29 29 28 27 26 26 26 28 31 31 30 30 29 27 26 24 24 24 24 24 23 24 24 24 23 23 22 21 20 19 16 15 14 13 14 14 13 13 13 13 14 14 15 15 15 14 14 14 14 15 16 16 16 15 16 18 18 18 16 14 11 10 10 11 12 14 15 16 17 17 18 19 19
29 31 31 29 29 29 29 28 28 30 32 33 32 31 29 28 27 26 26 25 25 25 25 25 25 26 26 25 24 23 22 20 18 17 16 15 15 15 15 14 14 14 15 15 16 16 15 15 15 15 15 16 16 16 16 18 19 19 18 15 11 9 9 11 13 13 14 15 16 18 18 18 19 19
30 31 32 31 30 31 31 30 29 29 30 33 34 33 31 30 29 29 28 27 27 27 26 25 26 27 28 28 27 26 24 23 21 19 18 17 17 17 17 15 15 15 15 15 15 15 15 15 15 15 16 16 16 17 17 19 19 19 18 15 10 10 12 14 16 16 16 15 15 16 16 16 16 17
32 32 33 33 32 33 33 32 31 30 30 31 34 35 33 32 31 31 30 30 29 29 28 27 27 28 29 29 29 27 25 24 23 22 21 21 19 18 17 15 15 15 16 16 15 15 15 15 16 17 18 17 17 17 18 19 20 20 18 15 12 13 15 17 19 20 21 18 15 14 13 13 12 13
34 34 34 34 35 35 34 34 33 32 31 31 32 34 34 34 34 33 32 32 32 32 31 30 29 29 30 30 30 28 27 28 27 24 24 23 20 18 17 16 15 15 16 16 16 16 16 16 17 18 19 18 17 17 18 19 21 20 17 14 14 14 16 18 21 22 22 18 15 13 12 11 10 10
37 37 37 36 36 37 36 36 35 34 33 32 32 32 34 35 36 36 35 35 34 34 34 34 32 31 32 33 32 31 32 32 28 24 24 24 21 19 19 18 17 16 17 18 18 17 17 17 17 18 19 18 17 18 19 20 21 19 15 13 14 15 17 19 22 23 20 17 14 13 12 11 10 10
39 39 39 39 38 38 38 37 37 36 35 35 33 32 32 34 36 37 39 39 38 37 37 37 36 35 36 36 36 36 35 33 30 27 27 26 23 21 22 21 20 19 19 20 19 18 17 18 19 19 18 18 18 18 19 19 19 15 13 12 13 15 17 20 22 22 18 15 14 13 11 11 11 10
40 40 40 40 40 40 40 39 38 38 38 37 35 34 33 34 35 38 39 41 40 40 40 39 39 39 39 38 38 38 37 35 33 31 29 28 26 25 26 25 23 20 20 21 21 18 18 20 21 20 18 18 19 19 19 18 15 12 11 12 13 15 17 20 21 19 17 15 13 11 11 11 11 10
40 40 40 41 42 42 42 41 41 40 39 39 38 36 35 34 35 37 39 41 41 41 41 41 41 41 41 40 39 39 38 37 36 33 31 30 29 29 29 28 26 22 19 21 22 19 18 20 22 20 19 19 19 20 19 16 12 10 11 13 14 16 18 19 19 17 16 14 12 10 10 9 10 10
41 41 41 42 42 43 43 43 43 42 41 40 40 39 37 37 36 37 39 40 42 42 42 42 42 42 41 40 40 39 37 37 37 36 34 32 31 32 32 30 28 23 20 21 23 21 19 20 22 21 20 20 20 20 18 14 12 12 12 14 15 17 17 17 16 16 15 13 12 10 9 9 9 9
43 43 42 42 42 42 43 44 44 44 43 42 42 41 41 40 39 39 39 41 42 43 45 45 45 43 42 42 40 37 36 36 37 37 35 32 31 31 29 28 27 25 23 23 24 23 21 20 22 22 20 20 20 19 17 14 13 13 14 15 17 17 16 15 14 14 14 12 10 9 9 9 9 9
46 45 44 44 44 43 43 44 44 44 44 43 44 44 44 44 43 43 43 43 43 44 46 47 45 44 43 43 41 38 36 36 36 35 33 31 28 28 27 27 27 27 26 26 26 27 24 21 22 22 20 19 19 18 17 16 15 15 16 17 17 15 14 13 13 13 12 10 9 8 7 8 8 9
47 47 47 47 46 45 45 44 44 44 44 44 45 46 46 46 46 47 47 46 45 45 46 46 46 44 43 43 42 40 38 36 35 34 33 32 30 30 30 31 30 29 30 30 30 29 25 22 22 22 19 19 19 18 18 18 17 17 17 16 15 13 12 13 13 12 11 9 8 6 6 6 8 9
47 47 48 48 48 48 47 46 45 45 44 45 46 47 48 48 49 51 51 49 48 47 47 47 47 46 45 44 44 42 40 38 35 35 37 37 35 34 34 34 33 32 33 33 32 31 27 23 22 22 21 20 20 19 19 19 18 18 16 14 13 12 12 14 14 12 10 8 7 6 5 6 8 10
45 47 48 48 48 49 48 47 47 46 46 47 48 49 49 50 52 54 53 52 51 50 49 49 49 49 48 47 46 45 43 40 39 39 41 40 38 38 39 38 35 34 35 35 33 32 29 24 22 22 22 22 21 20 20 20 19 17 15 13 13 13 14 14 13 12 10 8 7 6 6 6 8 10
43 45 47 47 48 48 48 48 48 48 48 48 49 50 50 52 56 57 54 53 53 52 52 51 51 52 52 50 49 48 46 44 43 43 43 42 42 43 42 39 37 38 38 36 34 34 31 25 23 24 24 23 22 21 20 20 19 17 15 14 14 15 15 14 13 12 10 8 7 7 6 7 8 11
42 43 45 46 47 47 48 48 47 48 49 50 50 50 52 56 59 56 53 54 54 53 53 53 53 53 54 53 53 52 50 48 47 47 46 46 47 47 45 42 41 41 39 34 32 34 32 27 25 26 25 24 22 20 19 19 18 16 16 16 16 16 14 13 13 12 10 9 9 8 7 8 10 12
45 45 44 44 45 46 47 47 47 48 49 49 50 52 55 58 58 54 53 54 53 53 54 54 54 54 55 55 56 55 55 53 52 50 50 51 51 50 48 45 44 44 40 34 31 32 31 29 27 27 26 25 23 22 21 21 19 18 17 17 17 16 15 15 14 12 11 11 10 9 9 10 11 12
45 45 44 44 43 44 45 47 47 49 48 47 49 52 55 56 56 54 54 54 54 53 54 54 55 56 56 57 58 58 58 57 55 54 53 53 53 53 51 48 45 44 40 35 33 34 33 32 30 29 29 27 25 24 23 23 22 21 19 18 17 16 16 15 14 13 13 12 11 10 10 12 13 13
42 43 42 42 42 42 43 44 45 47 47 48 50 52 52 53 53 54 55 56 56 55 54 54 56 58 57 58 59 60 60 59 58 56 55 55 54 53 52 49 46 43 39 35 35 36 36 34 32 31 30 28 25 24 24 25 25 23 20 18 17 17 17 15 14 14 14 13 13 12 12 13 14 13
35 36 36 36 36 38 39 40 40 42 44 46 48 49 49 50 51 52 55 57 57 56 55 56 58 60 59 59 60 61 61 60 59 59 58 56 55 53 52 50 47 44 40 36 35 37 37 35 33 32 30 27 26 25 25 26 26 25 21 19 19 19 17 16 16 15 15 15 14 13 13 13 13 14
31 31 30 30 31 32 34 35 37 39 41 43 44 45 46 47 48 50 54 56 57 57 58 59 60 61 62 62 62 61 60 59 59 60 59 57 54 52 51 49 47 45 42 39 38 37 38 37 34 32 30 28 26 24 25 26 27 26 23 21 20 19 18 18 17 15 14 14 13 12 11 11 12 16
32 33 33 33 35 36 37 39 41 42 43 44 45 46 46 47 48 50 52 54 56 58 59 61 63 63 63 63 62 60 59 59 60 60 59 57 55 54 53 51 48 46 43 41 40 39 39 38 35 33 31 29 27 25 25 26 27 26 24 22 20 19 18 18 16 14 14 13 11 10 10 12 14 18
34 36 38 39 40 42 43 44 45 46 46 46 47 48 48 48 49 50 51 55 57 57 59 62 63 63 63 62 60 59 58 58 58 59 59 58 57 56 54 53 51 49 46 44 42 41 40 38 37 35 33 30 28 26 26 26 26 25 24 22 20 18 17 16 15 15 15 13 11 11 12 13 16 18
29 32 35 38 41 43 46 47 48 49 50 50 50 51 51 51 51 51 52 55 56 58 60 61 61 61 61 61 60 58 56 56 57 59 59 59 58 56 55 54 53 51 49 46 44 42 40 40 39 37 34 31 28 25 25 26 26 24 22 21 20 18 17 16 15 15 14 13 12 12 12 14 17 19
21 23 26 30 33 37 41 44 46 48 50 51 52 53 54 55 56 56 57 58 59 60 61 61 60 60 61 60 59 57 56 57 59 60 60 60 59 56 55 55 53 53 53 50 46 43 41 41 40 38 34 31 27 24 24 25 25 23 21 20 19 17 17 16 15 14 15 14 12 12 14 17 19 21
22 23 24 25 27 29 31 34 38 41 44 46 48 50 51 53 55 57 59 60 61 63 64 64 63 64 64 63 60 58 58 59 59 59 61 61 60 58 57 56 55 54 54 52 50 47 44 42 40 37 34 30 26 25 26 25 22 21 20 19 19 18 16 15 15 15 15 14 13 14 17 19 19 18
25 26 27 28 28 29 30 32 34 37 39 42 45 48 50 51 53 55 58 59 61 63 65 65 66 67 68 67 63 60 58 57 57 58 60 60 59 61 62 62 60 58 57 56 54 51 48 46 44 39 34 29 25 25 27 26 22 20 20 19 18 17 16 14 14 15 14 14 15 17 18 19 19 15
23 23 23 23 23 23 24 26 28 30 32 35 39 42 46 49 52 54 57 59 60 62 64 65 67 67 67 66 62 59 59 58 57 58 60 61 62 63 64 64 62 60 59 58 57 53 50 49 46 41 36 31 27 27 29 27 22 19 18 18 17 16 14 13 13 15 15 16 17 18 18 19 17 11
17 17 18 18 18 19 20 22 24 27 30 33 36 39 42 45 48 51 54 56 58 61 62 64 65 66 66 65 61 57 57 59 60 62 63 64 65 66 64 63 62 61 59 58 56 54 51 49 45 42 38 33 29 29 28 24 19 17 16 16 16 14 13 13 14 15 15 16 17 17 17 17 14 9
13 14 15 16 18 20 23 26 29 32 35 37 39 42 44 46 48 48 49 51 54 58 61 63 64 65 64 63 61 59 58 59 62 65 67 68 69 69 68 67 64 61 60 58 55 53 52 50 46 42 38 34 31 29 26 23 19 17 17 17 16 15 15 16 17 15 15 16 16 15 14 13 10 8
13 14 16 17 19 22 25 28 31 32 34 36 39 42 45 48 50 50 50 50 51 54 57 61 63 63 61 61 62 61 61 62 65 68 70 72 72 71 71 70 66 61 59 56 53 52 51 48 45 42 38 34 26 19 16 16 16 16 17 17 16 15 17 19 18 15 15 15 15 13 11 10 9 9
13 14 16 18 21 24 27 29 29 31 35 39 43 46 48 49 51 51 52 52 52 52 53 56 59 60 60 60 62 63 64 67 71 73 74 74 74 74 73 71 67 63 60 56 53 51 50 46 43 39 35 27 19 12 11 12 14 16 16 15 14 15 16 16 15 14 14 13 12 11 11 10 10 11
14 15 17 19 22 25 28 28 30 34 39 44 46 48 49 49 49 49 50 50 51 51 52 52 53 55 56 57 60 63 64 66 69 73 74 74 73 73 73 71 68 65 62 58 55 52 48 43 39 34 28 21 18 19 19 19 18 18 17 16 14 14 13 12 13 14 14 12 12 12 11 10 11 12
14 16 18 20 23 26 28 29 32 37 42 44 45 46 47 46 44 44 44 45 46 47 49 50 49 49 51 54 56 61 65 68 69 70 72 73 73 72 70 67 66 65 62 58 54 49 43 38 35 32 26 22 23 26 26 23 21 19 19 18 16 14 13 12 12 13 13 12 12 13 11 10 12 13
14 17 19 21 24 26 27 30 35 39 41 41 41 42 43 43 42 41 40 41 42 43 45 47 46 45 47 50 52 57 63 68 72 72 71 71 72 72 70 66 64 63 61 56 50 44 38 36 35 31 27 26 27 27 25 23 20 19 19 19 17 15 14 14 13 13 13 13 13 13 12 11 12 14
16 17 19 20 22 24 27 31 35 37 37 37 37 38 41 43 43 41 38 38 39 41 42 44 45 45 44 45 47 51 54 58 65 71 73 72 70 68 68 66 63 61 60 55 47 41 38 36 33 30 28 29 28 26 25 22 20 19 18 16 14 13 14 14 14 14 14 14 14 13 13 13 13 13
18 18 17 18 19 22 26 30 32 32 32 34 35 38 41 43 43 40 36 35 36 38 40 41 41 42 43 43 43 44 47 50 56 61 63 67 68 64 59 56 53 52 51 47 42 38 36 34 32 30 29 28 27 25 23 21 18 17 16 14 13 12 13 13 13 14 15 15 14 12 12 13 12 11
Wind_Direction
228 229 231 223 202 189 196 210 223 228 225 227 235 224 212 208 208 209 213 220 230 234 228 226 228 233 243 252 256 264 275 287 292 289 287 282 276 278 280 275 268 261 259 257 256 258 262 269 275 281 290 300 308 313 316 317 317 315 313 311 309 307 306 306 307 307 308 309 310 310 311 311 311 310
237 234 230 225 211 192 193 209 220 223 221 223 232 229 219 218 222 225 227 231 235 230 224 224 228 233 240 245 251 259 268 278 284 283 281 278 277 276 274 271 266 262 261 260 259 260 263 270 276 280 288 296 304 311 314 315 315 312 310 307 305 304 305 307 308 309 310 311 312 312 312 313 312 311
239 240 234 226 217 202 196 203 212 219 220 223 228 230 226 223 227 232 233 234 234 225 221 226 234 240 244 248 251 254 264 276 281 278 273 272 272 270 268 267 266 265 264 262 262 263 265 271 276 278 283 292 302 308 310 309 308 306 304 302 302 302 303 304 305 307 310 311 312 313 312 311 311 310
241 243 241 233 222 211 204 205 210 217 222 225 229 232 232 228 227 229 229 231 233 227 223 231 239 240 240 244 246 251 263 274 277 271 267 266 266 267 267 268 267 266 265 264 264 265 269 272 274 275 279 289 298 301 302 301 299 298 297 297 298 299 299 300 301 304 306 308 308 308 308 308 308 308
243 244 244 244 234 219 212 211 213 217 222 226 228 232 236 236 232 227 226 229 232 228 225 231 236 233 229 234 243 254 263 267 264 259 259 260 262 265 268 267 265 263 262 263 265 267 268 268 269 273 278 285 292 295 296 295 292 292 294 295 296 296 297 299 301 302 303 303 303 302 303 304 305 306
243 244 245 246 245 232 221 218 218 219 222 225 230 233 236 237 236 231 228 228 230 228 228 230 230 227 228 235 244 253 258 260 258 251 250 255 260 262 261 260 259 259 259 260 262 263 261 261 266 272 277 281 287 292 294 293 292 295 297 296 295 296 298 302 304 303 302 302 301 299 299 300 301 302
243 244 245 245 246 243 235 227 224 224 225 227 232 235 238 239 238 236 232 230 230 229 228 231 232 230 232 239 246 253 259 261 256 249 247 250 255 257 255 253 252 253 256 256 257 256 254 258 265 270 274 279 286 292 293 292 296 302 303 300 298 300 304 307 306 304 304 304 301 298 296 296 296 297
243 244 246 246 244 244 243 239 232 228 229 231 234 236 238 239 239 239 237 235 235 232 229 230 232 232 234 239 246 253 258 258 253 248 248 247 248 252 252 249 247 249 253 256 257 256 255 259 264 268 273 278 285 291 293 296 302 306 308 305 304 307 311 309 306 304 303 303 301 298 295 293 293 293
243 244 246 247 246 244 244 244 241 236 234 235 236 238 239 240 239 239 238 237 237 236 233 231 231 231 234 239 244 249 253 255 251 244 244 245 245 247 249 248 246 245 249 255 259 258 256 258 263 268 273 277 284 289 293 298 302 307 310 308 308 314 315 310 308 307 306 304 301 298 296 294 292 291
244 244 246 247 247 247 245 245 246 245 242 240 239 239 240 241 240 238 238 238 237 238 238 236 232 231 233 236 239 243 246 249 248 244 245 247 243 241 244 248 247 244 246 251 255 256 255 258 265 269 272 275 281 286 291 295 300 305 307 306 309 316 317 316 317 319 320 317 308 300 296 295 294 292
245 245 246 247 248 249 249 248 248 248 248 246 244 243 242 242 242 240 239 238 237 238 239 238 235 233 233 234 238 241 243 244 246 246 246 247 245 241 242 245 246 244 244 249 255 256 255 258 262 265 268 270 274 280 286 291 296 300 302 302 308 316 318 319 322 324 325 323 315 305 301 299 297 297
245 245 246 247 248 249 250 252 252 251 250 249 248 246 244 242 242 242 242 240 239 239 239 239 239 237 235 235 236 238 237 237 241 244 244 246 249 247 244 245 246 244 243 248 255 259 257 256 258 261 265 266 268 274 280 285 290 294 295 297 305 313 316 318 320 322 321 320 316 310 307 306 306 306
246 245 246 247 249 250 251 252 254 254 254 252 251 250 247 244 243 243 242 241 240 241 240 239 239 237 236 235 234 235 236 240 245 247 246 247 248 247 245 244 243 244 246 248 252 256 256 255 256 258 262 267 270 273 278 283 286 287 288 292 301 309 314 315 316 317 316 316 316 313 312 313 313 314
248 247 247 249 250 251 252 253 253 254 255 255 254 254 252 249 247 245 243 241 240 241 242 242 240 237 237 237 237 239 243 247 248 246 245 246 245 242 242 242 242 241 242 245 249 253 253 252 253 255 258 266 272 275 280 283 282 279 280 287 297 306 310 311 311 312 313 316 317 316 316 317 316 316
250 249 249 250 251 251 251 252 253 253 254 255 255 255 254 253 252 249 246 244 243 242 243 244 243 241 241 242 241 243 245 247 246 245 244 244 243 240 240 243 245 242 239 241 246 249 249 250 252 255 258 266 272 275 278 277 275 275 281 288 294 300 304 307 308 308 311 315 317 318 319 319 318 318
251 251 251 251 251 251 252 252 253 254 253 254 255 254 254 254 253 252 251 249 248 246 245 245 246 247 248 246 244 244 245 246 247 246 243 242 242 241 241 245 250 248 241 239 244 247 247 248 251 253 258 264 268 271 272 272 273 280 285 286 290 295 299 303 306 307 310 314 318 321 321 321 321 323
251 251 252 252 252 252 253 253 254 254 254 254 254 254 254 254 253 252 252 253 253 253 252 251 251 253 253 251 250 248 247 247 247 245 242 242 242 241 243 248 254 252 241 236 242 246 246 248 251 253 258 263 266 269 271 272 273 278 280 282 286 292 296 300 305 306 307 310 317 322 326 329 330 331
251 252 253 253 254 254 254 253 253 254 254 254 253 252 252 253 253 251 251 251 252 253 254 254 255 257 257 257 258 255 250 248 247 247 245 244 244 245 250 255 256 251 242 238 242 246 248 248 250 254 258 262 265 269 269 265 265 269 274 279 284 287 290 297 303 302 299 303 313 322 330 337 340 341
251 253 253 254 256 257 256 256 256 255 255 254 253 252 252 253 254 254 253 252 251 251 252 253 256 258 258 259 260 258 252 250 251 252 253 252 252 253 254 253 249 245 241 239 240 245 249 248 250 256 259 258 261 268 266 260 261 267 272 276 279 279 284 295 302 297 291 296 307 317 329 338 339 340
251 251 252 253 255 257 257 257 257 257 255 254 254 253 253 254 254 256 258 257 255 254 254 254 256 258 258 258 258 256 253 251 250 250 249 248 247 245 245 244 243 242 240 238 240 245 249 249 251 257 255 250 257 267 266 261 263 267 270 271 269 271 283 296 299 292 283 284 293 302 319 332 334 334
252 251 251 252 253 255 257 257 257 256 254 253 253 253 254 255 255 257 259 256 255 256 256 257 257 257 257 256 256 254 252 250 247 242 239 238 236 235 236 237 238 240 240 239 240 243 247 248 251 253 248 247 255 263 263 264 266 265 263 261 262 270 283 291 293 287 275 270 274 280 301 323 327 326
254 254 253 253 253 254 256 256 256 255 253 252 252 253 253 253 255 258 256 252 253 254 254 254 254 253 253 253 253 252 249 247 242 238 236 236 232 231 232 234 237 240 241 241 240 240 243 243 242 242 240 243 251 258 260 263 263 258 255 257 262 270 277 283 286 283 273 266 263 265 283 310 315 313
257 257 256 255 254 255 256 256 255 255 254 253 252 252 252 252 255 258 256 252 252 253 252 252 251 250 250 249 248 248 246 243 240 238 237 236 233 231 232 233 234 235 238 241 239 238 240 238 232 231 233 238 246 253 257 259 258 254 253 256 259 264 270 278 282 279 275 271 265 264 277 297 301 302
259 259 259 258 257 256 256 255 255 255 254 254 253 253 251 252 256 259 257 254 254 253 253 254 254 252 250 247 245 245 244 241 238 236 236 235 233 233 232 232 234 236 241 243 238 236 238 236 230 230 235 241 247 252 257 259 257 255 255 257 259 263 269 276 276 272 273 274 267 266 279 290 292 297
259 259 259 260 261 261 259 257 256 255 255 255 254 254 253 256 260 260 258 257 256 254 254 254 253 252 251 247 244 242 241 240 238 236 234 234 233 233 232 232 234 238 242 242 235 233 235 234 229 229 233 239 246 252 258 259 259 261 260 259 262 265 268 271 269 268 273 274 266 267 280 286 288 294
261 261 260 262 263 264 264 262 260 258 257 256 256 256 257 260 262 261 260 259 258 255 254 253 251 250 249 246 244 241 239 238 237 236 235 235 234 233 234 236 237 239 242 240 231 227 229 230 228 226 229 236 244 250 254 256 258 260 258 254 257 259 259 260 261 266 271 269 266 272 279 282 286 292
264 264 264 266 267 267 266 266 265 263 261 259 259 259 260 261 262 261 260 258 255 253 252 252 251 249 247 245 243 242 240 238 236 235 235 235 234 233 235 237 240 244 247 242 231 226 226 227 227 227 231 237 241 245 250 254 258 259 254 249 249 250 250 252 258 264 266 264 265 268 269 273 281 290
266 267 268 269 270 269 268 269 269 268 266 264 264 264 264 263 263 262 260 257 253 250 249 249 249 249 247 245 244 244 244 242 240 237 235 235 234 232 234 237 239 242 244 239 232 228 227 226 226 229 233 236 238 243 250 255 259 260 252 244 243 245 248 252 257 261 261 260 260 257 256 267 278 284
266 266 269 271 273 274 273 272 270 268 267 268 268 268 267 265 262 261 260 259 255 250 247 247 248 248 248 248 248 249 247 245 242 238 234 232 231 230 231 234 237 240 239 235 229 227 228 228 227 228 230 232 236 242 249 255 259 258 250 243 242 245 249 252 254 257 256 253 250 250 257 268 275 278
262 261 262 264 267 269 270 270 269 269 269 270 271 271 270 267 263 260 260 259 255 252 251 250 249 249 249 250 250 249 245 241 239 237 232 228 227 227 227 228 231 233 233 232 230 229 229 229 228 227 227 228 233 240 247 252 255 253 248 242 240 242 246 250 251 251 247 241 240 248 259 266 270 274
262 262 262 261 262 264 264 265 266 268 269 269 270 269 268 266 264 262 261 259 256 254 255 254 252 251 250 249 247 245 240 237 236 236 232 228 226 225 224 224 225 225 226 227 229 230 230 229 228 227 225 226 231 238 246 250 250 247 244 240 238 240 244 245 245 245 242 235 233 243 255 264 269 272
263 263 263 263 263 264 264 264 265 265 266 268 269 269 267 267 266 265 265 263 259 258 258 255 252 252 251 248 245 241 238 236 237 235 232 228 225 223 221 220 221 221 221 223 225 226 228 229 229 229 228 229 232 237 242 245 242 238 237 237 237 240 241 241 242 242 237 229 230 242 256 263 267 272
270 268 266 265 265 266 267 268 269 269 270 271 272 273 271 271 270 269 269 267 265 265 263 256 252 252 251 249 245 240 236 236 236 233 229 226 223 220 218 217 218 219 220 220 220 220 221 225 228 230 230 232 235 237 237 236 233 232 233 235 236 237 237 239 242 237 227 223 232 249 257 259 265 274
284 283 281 279 278 277 276 276 277 278 279 279 280 280 279 277 276 274 273 271 270 269 267 262 258 256 252 247 244 239 234 233 232 229 227 223 219 216 216 216 216 218 219 219 218 217 217 220 223 226 229 231 233 235 233 229 228 231 233 233 232 232 232 235 239 233 224 225 240 252 254 260 271 279
291 290 289 289 288 287 286 284 284 284 284 284 284 284 284 283 281 279 278 276 275 273 270 267 264 260 253 247 242 237 233 231 229 226 224 220 216 215 216 215 214 216 217 217 217 217 218 219 219 220 222 222 221 226 228 227 227 229 230 230 229 228 226 228 234 231 225 230 244 251 258 269 278 281
294 294 294 295 295 294 292 292 292 291 290 288 287 285 283 282 280 279 278 278 276 274 271 267 264 261 256 250 244 236 229 227 226 223 221 218 215 216 216 214 214 214 213 214 215 215 216 217 217 217 217 214 212 220 226 225 223 226 230 231 228 223 219 221 229 231 226 230 242 253 265 275 279 280
295 296 298 302 306 308 309 310 309 308 306 304 302 298 292 288 284 281 279 278 276 273 270 267 264 262 257 253 247 237 227 222 222 221 220 218 216 215 213 211 212 211 210 210 212 213 213 213 214 216 215 211 212 221 225 223 222 226 225 221 216 214 213 217 226 231 230 234 246 257 266 271 277 286
297 302 307 310 314 318 321 322 321 319 317 315 312 309 304 300 296 291 286 281 276 274 272 269 266 263 258 253 247 238 228 221 218 218 218 217 216 214 211 210 209 208 207 206 207 209 211 211 212 214 214 212 215 220 221 219 220 218 213 210 209 207 210 219 227 233 237 242 251 258 262 267 280 295
312 316 318 319 322 325 326 326 326 324 324 323 321 317 313 307 302 297 291 285 280 276 273 270 268 265 261 255 249 240 231 223 219 216 216 216 215 212 210 208 207 205 203 203 202 204 207 209 210 212 216 218 220 219 215 215 217 212 208 211 211 208 211 218 226 235 241 245 249 254 259 267 282 295
321 323 323 325 328 330 330 329 329 328 329 329 327 324 320 314 308 301 293 287 283 279 275 272 270 267 264 259 253 244 233 225 220 217 216 215 214 211 209 206 203 201 199 198 198 200 203 205 208 212 218 222 223 219 217 223 222 214 212 215 215 212 213 218 227 239 245 244 244 249 257 266 276 287
321 323 325 328 331 332 331 329 328 328 329 328 326 324 321 316 310 303 297 291 286 283 279 276 272 269 267 263 257 248 237 227 220 217 215 213 211 209 207 203 200 197 195 193 193 195 198 201 207 212 216 218 215 213 217 223 223 219 219 221 219 219 225 232 239 243 243 237 237 245 255 267 275 281
324 325 326 327 330 331 331 330 330 330 330 329 327 325 324 320 313 308 304 299 293 287 284 282 278 273 269 265 260 253 243 232 223 217 213 210 207 205 203 199 196 193 191 189 189 190 192 199 205 209 209 210 209 210 215 223 226 225 224 223 224 230 238 237 231 231 233 233 236 244 254 265 270 274
324 323 323 325 329 332 334 336 336 335 334 333 331 330 330 328 322 315 310 304 298 292 287 284 283 279 273 269 266 260 248 235 225 218 212 207 204 202 199 195 193 191 188 185 184 185 190 198 203 204 205 206 207 210 218 226 230 230 228 226 227 233 233 225 222 229 235 235 237 244 252 258 262 269
319 320 322 326 332 337 340 341 342 342 342 341 341 341 342 339 334 327 319 309 302 296 291 287 285 283 280 276 272 266 257 242 227 217 210 205 201 198 195 193 190 185 182 179 177 179 189 199 201 201 202 203 205 213 221 225 227 229 227 223 224 226 223 220 222 229 234 237 241 247 249 250 255 267
320 322 325 331 339 344 347 348 351 354 356 356 358 359 358 352 345 338 329 316 306 300 295 291 286 282 281 279 275 273 271 258 237 219 206 200 196 191 188 185 179 173 172 172 170 175 187 196 197 196 199 203 209 217 221 220 221 223 223 226 232 226 214 214 224 233 240 246 248 244 241 244 252 265